Hourly Data Report for August 27, 2004

All times are specified in Local Standard Time (LST). Add 1 hour to adjust for Daylight Saving Time where and when it is observed.

TORONTO CITY
ONTARIO

43°40'00.000" N
79°24'00.000" W
112.50 m
6158355
71508
XTO

Download Data

Hourly Data (August 2004)
Hourly Data Report for August 27, 2004
TIME Temp Definition
°C
Dew Point Definition
°C
Rel Hum Definition
%
Wind Dir Definition
10's deg

Wind Spd Definition
km/h
Visibility Definition
km
Stn Press Definition
kPa
Hmdx Definition


Wind Chill Definition


Weather Definition


00:00 20.8 20.0 95 LegendMM LegendMM LegendMM 100.26 28   LegendNANA
01:00 21.4 20.6 95 LegendMM LegendMM LegendMM 100.24 29   LegendNANA
02:00 21.5 20.6 95 LegendMM LegendMM LegendMM 100.19 30   LegendNANA
03:00 21.6 20.7 95 LegendMM LegendMM LegendMM 100.27 30   LegendNANA
04:00 21.4 20.6 95 LegendMM LegendMM LegendMM 100.23 29   LegendNANA
05:00 21.3 20.6 96 LegendMM LegendMM LegendMM 100.21 29   LegendNANA
06:00 21.7 20.9 95 LegendMM LegendMM LegendMM 100.23 30   LegendNANA
07:00 21.9 21.0 95 LegendMM LegendMM LegendMM 100.21 30   LegendNANA
08:00 22.8 21.4 92 LegendMM LegendMM LegendMM 100.20 32   LegendNANA
09:00 23.2 21.5 90 LegendMM LegendMM LegendMM 100.14 32   LegendNANA
10:00 24.9 21.9 83 LegendMM LegendMM LegendMM 100.13 34   LegendNANA
11:00 25.0 22.0 83 LegendMM LegendMM LegendMM 100.04 34   LegendNANA
12:00 26.2 22.5 80 LegendMM LegendMM LegendMM 99.95 36   LegendNANA
13:00 25.0 22.5 86 LegendMM LegendMM LegendMM 100.03 35   LegendNANA
14:00 23.8 22.9 95 LegendMM LegendMM LegendMM 99.97 34   LegendNANA
15:00
16:00
17:00 27.2 24.1 83 LegendMM LegendMM LegendMM 99.82 39   LegendNANA
18:00 24.7 21.9 84 LegendMM LegendMM LegendMM 99.82 34   LegendNANA
19:00
20:00 24.8 23.3 91 LegendMM LegendMM LegendMM 99.92 35   LegendNANA
21:00 22.7 21.6 94 LegendMM LegendMM LegendMM 100.00 32   LegendNANA
22:00 22.3 21.6 96 LegendMM LegendMM LegendMM 99.96 31   LegendNANA
23:00 22.4 21.7 96 LegendMM LegendMM LegendMM 99.95 31   LegendNANA

Notes on Data Quality.

Legend

  • E = Estimated
  • M = Missing
  • NA = Not Available
Date modified: